QTR11K OTHH-OMDB

Flight info

Callsign QTR11K
Flight time N/A
Altitude 21000
Route ALSEM L305 ITBUL M677 VUTEB
Aircraft B789/H-SDE1E2E3FGHIJ2J3J4J5M1RWXY/LB1D1

Departure

Time 2026-05-07 18:51
Airport Hamad International Airport (OTHH)

Arrival

Time N/A
Airport Dubai International Airport (OMDB)
Time Latitude Longitude Altitude Speed Heading
2026-05-07 18:28 25.26468 51.61311 36 ft 0 kts 248°
2026-05-07 18:42 25.26475 51.61330 36 ft 4 kts 248°
2026-05-07 18:42 25.26484 51.61357 33 ft 2 kts 248°
2026-05-07 18:42 25.26494 51.61378 31 ft 4 kts 220°
2026-05-07 18:42 25.26517 51.61390 33 ft 4 kts 183°
2026-05-07 18:43 25.26543 51.61386 34 ft 3 kts 158°
2026-05-07 18:43 25.26567 51.61376 33 ft 4 kts 158°
2026-05-07 18:43 25.26572 51.61373 33 ft 7 kts 158°
2026-05-07 18:45 25.26572 51.61374 33 ft 0 kts 158°
2026-05-07 18:45 25.26567 51.61376 33 ft 2 kts 158°
2026-05-07 18:45 25.26548 51.61384 35 ft 4 kts 158°
2026-05-07 18:46 25.26513 51.61400 32 ft 6 kts 158°
2026-05-07 18:46 25.26464 51.61422 36 ft 9 kts 158°
2026-05-07 18:46 25.26406 51.61455 36 ft 10 kts 134°
2026-05-07 18:46 25.26400 51.61520 36 ft 9 kts 72°
2026-05-07 18:47 25.26423 51.61590 36 ft 11 kts 69°
2026-05-07 18:47 25.26454 51.61676 35 ft 14 kts 68°
2026-05-07 18:47 25.26495 51.61787 35 ft 18 kts 68°
2026-05-07 18:47 25.26547 51.61925 35 ft 21 kts 68°
2026-05-07 18:48 25.26532 51.62051 33 ft 11 kts 152°
2026-05-07 18:48 25.26460 51.62072 34 ft 12 kts 160°
2026-05-07 18:48 25.26369 51.62112 34 ft 16 kts 158°
2026-05-07 18:48 25.26252 51.62163 35 ft 20 kts 158°
2026-05-07 18:49 25.26111 51.62224 35 ft 23 kts 158°
2026-05-07 18:49 25.25947 51.62296 35 ft 27 kts 158°
2026-05-07 18:49 25.25762 51.62378 34 ft 29 kts 158°
2026-05-07 18:49 25.25602 51.62463 33 ft 10 kts 121°
2026-05-07 18:50 25.25602 51.62497 33 ft 3 kts 68°
2026-05-07 18:50 25.25617 51.62528 32 ft 7 kts 61°
2026-05-07 18:50 25.25653 51.62574 32 ft 9 kts 30°
2026-05-07 18:50 25.25724 51.62596 31 ft 12 kts 355°
2026-05-07 18:51 25.25835 51.62552 32 ft 34 kts 338°
2026-05-07 18:51 25.26333 51.62331 33 ft 121 kts 338°
2026-05-07 18:51 25.27328 51.61893 323 ft 168 kts 333°
2026-05-07 18:51 25.28442 51.61374 1222 ft 178 kts 338°
2026-05-07 18:52 25.29634 51.60883 1933 ft 193 kts 339°
2026-05-07 18:52 25.30980 51.60293 2297 ft 221 kts 338°
2026-05-07 18:52 25.32491 51.59620 2669 ft 250 kts 338°
2026-05-07 18:52 25.34240 51.59024 2971 ft 280 kts 357°
2026-05-07 18:53 25.36231 51.59441 3303 ft 307 kts 17°
2026-05-07 18:53 25.38341 51.60251 3589 ft 330 kts 20°
2026-05-07 18:53 25.40508 51.61120 4476 ft 331 kts 18°
2026-05-07 18:53 25.42683 51.62037 5114 ft 339 kts 31°
2026-05-07 18:54 25.44462 51.63757 5913 ft 341 kts 53°
2026-05-07 18:54 25.45537 51.66084 6764 ft 341 kts 75°
2026-05-07 18:54 25.45761 51.68707 7484 ft 347 kts 96°
2026-05-07 18:54 25.45340 51.71321 8186 ft 350 kts 102°
2026-05-07 18:55 25.44799 51.73960 8982 ft 353 kts 104°
2026-05-07 18:55 25.44222 51.76612 9738 ft 357 kts 103°
2026-05-07 18:55 25.43680 51.79314 10385 ft 363 kts 102°
2026-05-07 18:55 25.43152 51.82042 11117 ft 365 kts 102°
2026-05-07 18:56 25.42600 51.84811 11753 ft 371 kts 102°
2026-05-07 18:56 25.42024 51.87634 12371 ft 376 kts 102°
2026-05-07 18:56 25.41457 51.90441 13012 ft 381 kts 102°
2026-05-07 18:56 25.40880 51.93321 13660 ft 386 kts 102°
2026-05-07 18:57 25.40294 51.96237 14250 ft 390 kts 102°
2026-05-07 18:57 25.39700 51.99176 14885 ft 392 kts 103°
2026-05-07 18:57 25.39102 52.02128 15530 ft 395 kts 104°
2026-05-07 18:57 25.38500 52.05102 16092 ft 398 kts 104°